| time (UTC) | temp F | wind direction | speed MPH | gust MPH | rain 1hr in | rain 24hr in | rain mn in | humidity % | barometer mb |
| 20260504191202 | 0 | 78 | 3.0 | 3.0 | 0.00 | 0.00 | 0.00 | 1016.7 | |
| 20260504190658 | 0 | 33 | 12.0 | 15.0 | 0.00 | 0.00 | 0.00 | 1016.7 | |
| 20260504190154 | 0 | 48 | 9.0 | 14.0 | 0.00 | 0.00 | 0.00 | 1016.7 | |
| 20260504185651 | 0 | 45 | 8.0 | 11.0 | 0.00 | 0.00 | 0.00 | 1016.8 | |
| 20260504185147 | 0 | 26 | 9.0 | 9.0 | 0.00 | 0.00 | 0.00 | 1016.7 | |
| 20260504184644 | 0 | 40 | 7.0 | 13.0 | 0.00 | 0.00 | 0.00 | 1016.7 | |
| 20260504184139 | 0 | 44 | 11.0 | 13.0 | 0.00 | 0.00 | 0.00 | 1016.7 | |
| 20260504183636 | 0 | 43 | 10.0 | 15.0 | 0.00 | 0.00 | 0.00 | 1017.0 | |
| 20260504183133 | 0 | 31 | 12.0 | 16.0 | 0.00 | 0.00 | 0.00 | 1017.0 | |
| 20260504182631 | 0 | 37 | 10.0 | 13.0 | 0.00 | 0.00 | 0.00 | 1017.2 | |
| 20260504182128 | 0 | 47 | 10.0 | 11.0 | 0.00 | 0.00 | 0.00 | 1017.0 | |
| 20260504181626 | 0 | 53 | 10.0 | 13.0 | 0.00 | 0.00 | 0.00 | 1017.1 | |
| 20260504181123 | 0 | 36 | 9.0 | 14.0 | 0.00 | 0.00 | 0.00 | 1017.1 | |
| 20260504180622 | 0 | 21 | 7.0 | 13.0 | 0.00 | 0.00 | 0.00 | 1017.3 | |
| 20260504180121 | 0 | 62 | 14.0 | 16.0 | 0.00 | 0.00 | 0.00 | 1017.4 | |
| 20260504175617 | 0 | 50 | 11.0 | 19.0 | 0.00 | 0.00 | 0.00 | 1017.4 | |
| 20260504175114 | 0 | 31 | 17.0 | 18.0 | 0.00 | 0.00 | 0.00 | 1017.4 | |
| 20260504174612 | 0 | 36 | 11.0 | 15.0 | 0.00 | 0.00 | 0.00 | 1017.6 | |
| 20260504174108 | 0 | 26 | 8.0 | 13.0 | 0.00 | 0.00 | 0.00 | 1017.7 | |
| 20260504173605 | 0 | 27 | 12.0 | 16.0 | 0.00 | 0.00 | 0.00 | 1017.8 | |
| 20260504173103 | 0 | 357 | 11.0 | 13.0 | 0.00 | 0.00 | 0.00 | 1017.8 | |
| 20260504172559 | 0 | 26 | 13.0 | 15.0 | 0.00 | 0.00 | 0.00 | 1017.8 | |
| 20260504172056 | 0 | 42 | 11.0 | 13.0 | 0.00 | 0.00 | 0.00 | 1017.8 | |
| 20260504171552 | 0 | 17 | 6.0 | 8.0 | 0.00 | 0.00 | 0.00 | 1017.9 | |
| 20260504171049 | 0 | 22 | 4.0 | 13.0 | 0.00 | 0.00 | 0.00 | 1017.8 | |
| 20260504170545 | 0 | 59 | 10.0 | 13.0 | 0.00 | 0.00 | 0.00 | 1017.7 | |
| 20260504150929 | 0 | 31 | 14.0 | 16.0 | 0.00 | 0.00 | 0.00 | 1018.9 | |
| 20260504150426 | 0 | 36 | 11.0 | 14.0 | 0.00 | 0.00 | 0.00 | 1018.9 | |
| 20260504140852 | 0 | 101 | 11.0 | 14.0 | 0.00 | 0.00 | 0.00 | 1019.0 | |
| 20260504140348 | 0 | 90 | 9.0 | 13.0 | 0.00 | 0.00 | 0.00 | 1019.3 | |
| 20260504130817 | 0 | 70 | 7.0 | 15.0 | 0.00 | 0.00 | 0.00 | 1018.6 | |
| 20260504130314 | 0 | 107 | 10.0 | 14.0 | 0.00 | 0.00 | 0.00 | 1018.8 | |
| 20260504120237 | 0 | 88 | 6.0 | 7.0 | 0.00 | 0.00 | 0.00 | 1019.2 | |
| 20260504110704 | 0 | 134 | 4.0 | 6.0 | 0.00 | 0.00 | 0.00 | 1019.1 | |
| 20260504110201 | 0 | 111 | 2.0 | 4.0 | 0.00 | 0.00 | 0.00 | 1019.1 | |
| 20260504100125 | 0 | 150 | 5.0 | 6.0 | 0.00 | 0.00 | 0.00 | 1018.8 | |
| 20260504081518 | 0 | 141 | 5.0 | 7.0 | 0.00 | 0.00 | 0.00 | 1017.8 | |
| 20260504081013 | 0 | 134 | 6.0 | 8.0 | 0.00 | 0.00 | 0.00 | 1018.0 | |
| 20260504080510 | 0 | 139 | 6.0 | 8.0 | 0.00 | 0.00 | 0.00 | 1018.0 | |
| 20260504050328 | 0 | 118 | 7.0 | 8.0 | 0.00 | 0.00 | 0.00 | 1018.7 | |
| 20260504045825 | 0 | 133 | 7.0 | 8.0 | 0.00 | 0.00 | 0.00 | 1018.8 | |
| 20260504045320 | 0 | 113 | 5.0 | 8.0 | 0.00 | 0.00 | 0.00 | 1018.9 | |
| 20260504044817 | 0 | 131 | 6.0 | 8.0 | 0.00 | 0.00 | 0.00 | 1018.8 | |
| 20260504044315 | 0 | 135 | 7.0 | 8.0 | 0.00 | 0.00 | 0.00 | 1018.9 | |
| 20260504043812 | 0 | 128 | 7.0 | 8.0 | 0.00 | 0.00 | 0.00 | 1019.3 | |
| 20260504043309 | 0 | 116 | 5.0 | 6.0 | 0.00 | 0.00 | 0.00 | 1019.3 | |
| 20260504042806 | 0 | 115 | 3.0 | 6.0 | 0.00 | 0.00 | 0.00 | 1019.7 | |
| 20260504042304 | 0 | 120 | 3.0 | 4.0 | 0.00 | 0.00 | 0.00 | 1019.6 | |
| 20260504041759 | 0 | 110 | 2.0 | 4.0 | 0.00 | 0.00 | 0.00 | 1019.6 | |
| 20260504041255 | 0 | 120 | 5.0 | 7.0 | 0.00 | 0.00 | 0.00 | 1019.5 | |
| 20260504040752 | 0 | 124 | 5.0 | 6.0 | 0.00 | 0.00 | 0.00 | 1019.6 | |
| 20260504040249 | 0 | 138 | 4.0 | 4.0 | 0.00 | 0.00 | 0.00 | 1019.9 | |
| 20260504035744 | 0 | 136 | 4.0 | 6.0 | 0.00 | 0.00 | 0.00 | 1019.7 | |
| 20260504035242 | 0 | 157 | 3.0 | 6.0 | 0.00 | 0.00 | 0.00 | 1019.7 | |
| 20260504034739 | 0 | 144 | 3.0 | 6.0 | 0.00 | 0.00 | 0.00 | 1019.8 | |
| 20260504034237 | 0 | 145 | 4.0 | 6.0 | 0.00 | 0.00 | 0.00 | 1019.9 | |
| 20260504033734 | 0 | 136 | 4.0 | 6.0 | 0.00 | 0.00 | 0.00 | 1019.9 | |
| 20260504033231 | 0 | 148 | 3.0 | 4.0 | 0.00 | 0.00 | 0.00 | 1020.1 | |
| 20260504032728 | 0 | 147 | 4.0 | 6.0 | 0.00 | 0.00 | 0.00 | 1020.0 | |
| 20260504032225 | 0 | 162 | 3.0 | 4.0 | 0.00 | 0.00 | 0.00 | 1020.1 | |
| 20260504031722 | 0 | 162 | 1.0 | 2.0 | 0.00 | 0.00 | 0.00 | 1020.0 | |
| 20260504031220 | 0 | 186 | 1.0 | 2.0 | 0.00 | 0.00 | 0.00 | 1019.8 | |
| 20260504030715 | 0 | 174 | 1.0 | 1.0 | 0.00 | 0.00 | 0.00 | 1019.9 | |
| 20260504030213 | 0 | 162 | 1.0 | 2.0 | 0.00 | 0.00 | 0.00 | 1019.8 | |
| 20260504025709 | 0 | 183 | 2.0 | 2.0 | 0.00 | 0.00 | 0.00 | 1019.9 | |
| 20260504025206 | 0 | 198 | 2.0 | 2.0 | 0.00 | 0.00 | 0.00 | 1019.9 | |
| 20260504024703 | 0 | 196 | 2.0 | 2.0 | 0.00 | 0.00 | 0.00 | 1020.0 | |
| 20260504024159 | 0 | 185 | 2.0 | 2.0 | 0.00 | 0.00 | 0.00 | 1019.9 | |
| 20260504023656 | 0 | 156 | 0.0 | 2.0 | 0.00 | 0.00 | 0.00 | 1019.6 | |
| 20260504023152 | 0 | 179 | 1.0 | 1.0 | 0.00 | 0.00 | 0.00 | 1019.5 | |
| 20260504022648 | 0 | 152 | 2.0 | 3.0 | 0.00 | 0.00 | 0.00 | 1019.5 | |
| 20260504022145 | 0 | 138 | 2.0 | 3.0 | 0.00 | 0.00 | 0.00 | 1019.5 | |
| 20260504021643 | 0 | 123 | 2.0 | 3.0 | 0.00 | 0.00 | 0.00 | 1019.5 | |
| 20260504021139 | 0 | 133 | 4.0 | 4.0 | 0.00 | 0.00 | 0.00 | 1019.4 | |
| 20260504020636 | 0 | 123 | 3.0 | 4.0 | 0.00 | 0.00 | 0.00 | 1019.5 | |
| 20260504020132 | 0 | 137 | 3.0 | 4.0 | 0.00 | 0.00 | 0.00 | 1019.4 | |
| 20260504015629 | 0 | 150 | 3.0 | 4.0 | 0.00 | 0.00 | 0.00 | 1019.1 | |
| 20260504015126 | 0 | 157 | 3.0 | 6.0 | 0.00 | 0.00 | 0.00 | 1019.2 | |
| 20260504014621 | 0 | 147 | 2.0 | 3.0 | 0.00 | 0.00 | 0.00 | 1019.3 | |
| 20260504014119 | 0 | 170 | 2.0 | 2.0 | 0.00 | 0.00 | 0.00 | 1019.0 | |
| 20260504013616 | 0 | 179 | 2.0 | 3.0 | 0.00 | 0.00 | 0.00 | 1018.9 | |
| 20260504013113 | 0 | 179 | 2.0 | 2.0 | 0.00 | 0.00 | 0.00 | 1018.9 | |
| 20260504012610 | 0 | 163 | 3.0 | 4.0 | 0.00 | 0.00 | 0.00 | 1019.0 | |
| 20260504012108 | 0 | 164 | 3.0 | 3.0 | 0.00 | 0.00 | 0.00 | 1019.0 | |
| 20260504011605 | 0 | 171 | 3.0 | 4.0 | 0.00 | 0.00 | 0.00 | 1018.7 | |
| 20260504011100 | 0 | 170 | 3.0 | 6.0 | 0.00 | 0.00 | 0.00 | 1018.7 | |
| 20260504010556 | 0 | 163 | 2.0 | 4.0 | 0.00 | 0.00 | 0.00 | 1018.9 | |
| 20260504010053 | 0 | 164 | 3.0 | 4.0 | 0.00 | 0.00 | 0.00 | 1018.8 | |
| 20260504005549 | 0 | 175 | 4.0 | 7.0 | 0.00 | 0.00 | 0.00 | 1018.9 | |
| 20260504005047 | 0 | 179 | 4.0 | 6.0 | 0.00 | 0.00 | 0.00 | 1018.5 | |
| 20260504004544 | 0 | 180 | 5.0 | 6.0 | 0.00 | 0.00 | 0.00 | 1018.9 | |
| 20260504004041 | 0 | 208 | 5.0 | 6.0 | 0.00 | 0.00 | 0.00 | 1018.6 | |
| 20260504003537 | 0 | 201 | 5.0 | 6.0 | 0.00 | 0.00 | 0.00 | 1018.5 | |
| 20260504003034 | 0 | 199 | 3.0 | 4.0 | 0.00 | 0.00 | 0.00 | 1018.6 | |
| 20260504002531 | 0 | 184 | 3.0 | 4.0 | 0.00 | 0.00 | 0.00 | 1018.5 | |
| 20260504002029 | 0 | 186 | 3.0 | 4.0 | 0.00 | 0.00 | 0.00 | 1018.4 | |
| 20260504001526 | 0 | 217 | 1.0 | 2.0 | 0.00 | 0.00 | 0.00 | 1018.2 | |
| 20260504001022 | 0 | 205 | 1.0 | 2.0 | 0.00 | 0.00 | 0.00 | 1018.3 | |
| 20260504000519 | 0 | 224 | 2.0 | 2.0 | 0.00 | 0.00 | 0.00 | 1018.3 | |
| 20260504000017 | 0 | 231 | 1.0 | 1.0 | 0.00 | 0.00 | 0.00 | 1017.9 | |
| 20260503235515 | 0 | 217 | 0.0 | 1.0 | 0.00 | 0.00 | 0.00 | 1018.1 | |
| 20260503235011 | 0 | 194 | 1.0 | 2.0 | 0.00 | 0.00 | 0.00 | 1018.1 | |
| 20260503234509 | 0 | 178 | 1.0 | 1.0 | 0.00 | 0.00 | 0.00 | 1018.2 | |
| 20260503234007 | 0 | 105 | 2.0 | 2.0 | 0.00 | 0.00 | 0.00 | 1018.1 | |
| 20260503233503 | 0 | 190 | 0.0 | 1.0 | 0.00 | 0.00 | 0.00 | 1018.1 | |
| 20260503232959 | 0 | 122 | 1.0 | 1.0 | 0.00 | 0.00 | 0.00 | 1018.0 | |
| 20260503232456 | 0 | 158 | 2.0 | 3.0 | 0.00 | 0.00 | 0.00 | 1017.8 | |
| 20260503231954 | 0 | 117 | 1.0 | 3.0 | 0.00 | 0.00 | 0.00 | 1017.8 | |
| 20260503231451 | 0 | 86 | 0.0 | 2.0 | 0.00 | 0.00 | 0.00 | 1017.7 | |
| 20260503230948 | 0 | 116 | 1.0 | 3.0 | 0.00 | 0.00 | 0.00 | 1018.0 | |
| 20260503230444 | 0 | 87 | 6.0 | 8.0 | 0.00 | 0.00 | 0.00 | 1017.7 | |
| 20260503225942 | 0 | 96 | 3.0 | 7.0 | 0.00 | 0.00 | 0.00 | 1017.7 | |
| 20260503225439 | 0 | 97 | 5.0 | 8.0 | 0.00 | 0.00 | 0.00 | 1017.6 | |
| 20260503224934 | 0 | 111 | 3.0 | 7.0 | 0.00 | 0.00 | 0.00 | 1017.8 | |
| 20260503224431 | 0 | 94 | 3.0 | 7.0 | 0.00 | 0.00 | 0.00 | 1017.6 | |
| 20260503223929 | 0 | 79 | 4.0 | 6.0 | 0.00 | 0.00 | 0.00 | 1017.5 | |
| 20260503223427 | 0 | 79 | 6.0 | 9.0 | 0.00 | 0.00 | 0.00 | 1017.4 | |
| 20260503222922 | 0 | 95 | 3.0 | 7.0 | 0.00 | 0.00 | 0.00 | 1017.5 | |
| 20260503222421 | 0 | 151 | 4.0 | 6.0 | 0.00 | 0.00 | 0.00 | 1017.5 | |
| 20260503221919 | 0 | 133 | 4.0 | 4.0 | 0.00 | 0.00 | 0.00 | 1017.4 | |
| 20260503221417 | 0 | 77 | 8.0 | 8.0 | 0.00 | 0.00 | 0.00 | 1017.4 | |
| 20260503220913 | 0 | 79 | 7.0 | 9.0 | 0.00 | 0.00 | 0.00 | 1017.6 | |
| 20260503220410 | 0 | 119 | 4.0 | 8.0 | 0.00 | 0.00 | 0.00 | 1017.2 | |
| 20260503215907 | 0 | 61 | 10.0 | 11.0 | 0.00 | 0.00 | 0.00 | 1017.3 | |
| 20260503215404 | 0 | 70 | 8.0 | 13.0 | 0.00 | 0.00 | 0.00 | 1017.4 | |
| 20260503214901 | 0 | 93 | 9.0 | 13.0 | 0.00 | 0.00 | 0.00 | 1017.4 | |
| 20260503214358 | 0 | 74 | 4.0 | 13.0 | 0.00 | 0.00 | 0.00 | 1017.3 | |
| 20260503213856 | 0 | 80 | 14.0 | 16.0 | 0.00 | 0.00 | 0.00 | 1017.5 | |
| 20260503213354 | 0 | 70 | 5.0 | 11.0 | 0.00 | 0.00 | 0.00 | 1017.3 | |
| 20260503212850 | 0 | 65 | 7.0 | 11.0 | 0.00 | 0.00 | 0.00 | 1017.5 | |
| 20260503212348 | 0 | 39 | 5.0 | 10.0 | 0.00 | 0.00 | 0.00 | 1017.3 | |
| 20260503211845 | 0 | 72 | 6.0 | 14.0 | 0.00 | 0.00 | 0.00 | 1017.4 | |
| 20260503211342 | 0 | 45 | 4.0 | 7.0 | 0.00 | 0.00 | 0.00 | 1017.3 | |
| 20260503210837 | 0 | 80 | 2.0 | 9.0 | 0.00 | 0.00 | 0.00 | 1017.3 | |
| 20260503210334 | 0 | 80 | 11.0 | 13.0 | 0.00 | 0.00 | 0.00 | 1017.1 | |
| 20260503205829 | 0 | 45 | 13.0 | 14.0 | 0.00 | 0.00 | 0.00 | 1016.8 | |
| 20260503205326 | 0 | 66 | 10.0 | 14.0 | 0.00 | 0.00 | 0.00 | 1017.0 | |
| 20260503204823 | 0 | 72 | 8.0 | 14.0 | 0.00 | 0.00 | 0.00 | 1016.9 | |
| 20260503204320 | 0 | 74 | 8.0 | 11.0 | 0.00 | 0.00 | 0.00 | 1017.0 | |
| 20260503203817 | 0 | 60 | 13.0 | 14.0 | 0.00 | 0.00 | 0.00 | 1016.8 | |
| 20260503203315 | 0 | 79 | 11.0 | 18.0 | 0.00 | 0.00 | 0.00 | 1016.9 | |
| 20260503202811 | 0 | 49 | 16.0 | 18.0 | 0.00 | 0.00 | 0.00 | 1017.0 | |
| 20260503202309 | 0 | 55 | 14.0 | 16.0 | 0.00 | 0.00 | 0.00 | 1017.1 | |
| 20260503201807 | 0 | 23 | 14.0 | 15.0 | 0.00 | 0.00 | 0.00 | 1017.2 | |
| 20260503201304 | 0 | 46 | 12.0 | 16.0 | 0.00 | 0.00 | 0.00 | 1017.4 | |
| 20260503200802 | 0 | 44 | 15.0 | 16.0 | 0.00 | 0.00 | 0.00 | 1017.4 | |
| 20260503200257 | 0 | 66 | 10.0 | 16.0 | 0.00 | 0.00 | 0.00 | 1017.4 | |
| 20260503195755 | 0 | 30 | 9.0 | 14.0 | 0.00 | 0.00 | 0.00 | 1017.4 | |
| 20260503195251 | 0 | 56 | 7.0 | 14.0 | 0.00 | 0.00 | 0.00 | 1017.4 | |
| 20260503194749 | 0 | 47 | 15.0 | 18.0 | 0.00 | 0.00 | 0.00 | 1017.5 | |
| 20260503194244 | 0 | 53 | 15.0 | 18.0 | 0.00 | 0.00 | 0.00 | 1017.4 | |
| 20260503193741 | 0 | 44 | 9.0 | 15.0 | 0.00 | 0.00 | 0.00 | 1017.5 | |
| 20260503193237 | 0 | 60 | 15.0 | 18.0 | 0.00 | 0.00 | 0.00 | 1017.3 | |
| 20260503192733 | 0 | 23 | 11.0 | 15.0 | 0.00 | 0.00 | 0.00 | 1017.7 | |
| 20260503192228 | 0 | 67 | 10.0 | 16.0 | 0.00 | 0.00 | 0.00 | 1017.7 | |
| 20260503191725 | 0 | 80 | 13.0 | 16.0 | 0.00 | 0.00 | 0.00 | 1017.6 |